FW1892 Weather Reports


Display with metric or nautical units.
time (UTC)temp
F
wind
direction
speed
MPH
gust
MPH
rain 1hr
in
rain 24hr
in
rain mn
in
humidity
%
barometer
mb
20240224021516 34 186 0.0 0.0 0.00 0.22 0.22 91 996.3
20240224021013 34 186 0.0 0.0 0.00 0.22 0.22 91 996.3
20240224020520 34 186 0.0 0.0 0.00 0.22 0.22 91 996.3
20240224020022 34 186 0.0 0.0 0.00 0.22 0.22 91 996.4
20240224015528 34 186 0.0 0.0 0.00 0.22 0.22 91 996.5
20240224015024 34 186 0.0 0.0 0.00 0.22 0.22 91 996.5
20240224014536 35 186 0.0 0.0 0.00 0.22 0.22 91 996.4
20240224014036 35 186 0.0 0.0 0.00 0.22 0.22 91 996.6
20240224013552 35 186 0.0 0.0 0.00 0.22 0.22 91 996.6
20240224013047 35 186 0.0 0.0 0.00 0.22 0.22 91 996.6
20240224012601 35 186 0.0 0.0 0.00 0.22 0.22 90 996.6
20240224012057 35 186 0.0 0.0 0.00 0.22 0.22 90 996.5
20240224011505 35 186 0.0 0.0 0.00 0.22 0.22 90 996.5
20240224011003 35 186 0.0 0.0 0.00 0.22 0.22 90 996.6
20240224010508 35 186 0.0 0.0 0.00 0.22 0.22 90 996.8
20240224010041 35 186 0.0 0.0 0.00 0.22 0.22 90 996.8
20240224005554 35 186 0.0 0.0 0.00 0.22 0.22 90 996.8
20240224005048 35 186 0.0 0.0 0.00 0.22 0.22 90 996.8
20240224004602 35 186 0.0 0.0 0.00 0.22 0.22 90 996.7
20240224004503 35 186 0.0 0.0 0.00 0.22 0.22 90 996.7
20240224004056 35 186 0.0 0.0 0.00 0.22 0.22 90 996.7
20240224004004 35 186 0.0 0.0 0.00 0.22 0.22 90 996.7
20240224003508 35 186 0.0 0.0 0.00 0.22 0.22 90 996.6
20240224003007 36 186 0.0 0.0 0.00 0.22 0.22 90 996.6
20240224002514 35 186 0.0 0.0 0.00 0.22 0.22 90 996.6
20240224002014 36 186 0.0 0.0 0.00 0.22 0.22 89 996.6
20240224001520 36 186 0.0 0.0 0.00 0.22 0.22 89 996.6
20240224001021 36 186 0.0 0.0 0.00 0.22 0.22 89 996.5
20240224000533 36 186 0.0 0.0 0.00 0.22 0.22 89 996.5
20240224000035 36 186 0.0 0.0 0.00 0.22 0.22 89 996.6
20240223235535 36 186 0.0 0.0 0.00 0.22 0.22 89 996.6
20240223235035 36 186 0.0 0.0 0.00 0.22 0.22 89 996.6
20240223234552 36 186 0.0 0.0 0.00 0.22 0.22 89 996.5
20240223234044 36 186 0.0 0.0 0.00 0.22 0.22 88 996.5
20240223233555 36 186 0.0 0.0 0.00 0.22 0.22 88 996.5
20240223233055 37 186 0.0 0.0 0.00 0.22 0.22 88 996.5
20240223232504 37 186 0.0 0.0 0.00 0.22 0.22 88 996.6
20240223232009 37 186 0.0 0.0 0.00 0.22 0.22 88 996.5
20240223231513 37 186 0.0 0.0 0.00 0.22 0.22 88 996.5
20240223231012 37 186 0.0 0.0 0.00 0.22 0.22 87 996.6
20240223230521 37 186 0.0 0.0 0.00 0.22 0.22 87 996.6
20240223230100 38 186 0.0 0.0 0.00 0.22 0.22 87 996.5
20240223225509 38 186 0.0 0.0 0.00 0.22 0.22 87 996.5
20240223225012 38 186 0.0 0.0 0.00 0.22 0.22 87 996.6
20240223224521 38 186 0.0 0.0 0.00 0.22 0.22 86 996.6
20240223224007 38 186 0.0 0.0 0.00 0.22 0.22 86 996.7
20240223223514 39 186 0.0 0.0 0.00 0.22 0.22 86 996.6
20240223223031 39 186 0.0 0.0 0.00 0.22 0.22 86 996.5
20240223222531 39 186 0.0 0.0 0.00 0.22 0.22 86 996.5
20240223222029 39 186 0.0 0.0 0.00 0.22 0.22 85 996.6
20240223221538 39 186 0.0 0.0 0.00 0.22 0.22 85 996.5
20240223221041 39 186 0.0 0.0 0.00 0.22 0.22 85 996.4
20240223220553 40 186 0.0 0.0 0.00 0.22 0.22 85 996.3
20240223220046 40 186 0.0 0.0 0.00 0.22 0.22 85 996.3
20240223215557 40 186 0.0 0.0 0.00 0.22 0.22 85 996.4
20240223215059 40 186 0.0 0.0 0.00 0.22 0.22 84 996.4
20240223214503 40 186 0.0 0.0 0.00 0.22 0.22 84 996.4
20240223214059 40 182 0.0 0.0 0.00 0.22 0.22 84 996.4
20240223214001 41 170 0.0 0.0 0.00 0.22 0.22 84 996.4
20240223213510 41 148 0.0 0.0 0.00 0.22 0.22 84 996.4
20240223213024 41 155 0.0 0.0 0.00 0.22 0.22 83 996.4
20240223212517 41 161 0.0 0.0 0.00 0.22 0.22 83 996.3
20240223212017 41 180 0.0 0.0 0.00 0.22 0.22 83 996.2
20240223211523 41 103 0.0 0.0 0.00 0.22 0.22 83 996.2
20240223211025 42 103 0.0 0.0 0.00 0.22 0.22 83 996.2
20240223210530 42 149 0.0 0.0 0.00 0.22 0.22 83 996.3
20240223210015 42 127 0.0 0.0 0.00 0.22 0.22 83 996.1
20240223205509 42 120 0.0 0.0 0.00 0.22 0.22 83 996.2
20240223205017 42 107 0.0 0.0 0.00 0.22 0.22 83 996.2
20240223204531 42 128 0.0 0.0 0.00 0.22 0.22 83 996.2
20240223204021 42 61 0.0 0.0 0.00 0.22 0.22 83 996.2
20240223203531 41 56 0.0 0.0 0.00 0.22 0.22 83 996.3
20240223203026 41 34 0.0 0.0 0.00 0.22 0.22 83 996.4
20240223202539 41 34 0.0 0.0 0.00 0.22 0.22 83 996.4
20240223202033 41 33 0.0 0.0 0.00 0.22 0.22 83 996.4
20240223201537 41 33 0.0 0.0 0.00 0.22 0.22 84 996.5
20240223201034 41 28 0.0 0.0 0.00 0.22 0.22 85 996.5
20240223200551 41 23 0.0 0.0 0.00 0.22 0.22 85 996.4
20240223200043 41 44 0.0 0.0 0.00 0.22 0.22 85 996.4
20240223195553 41 42 0.0 0.0 0.00 0.22 0.22 86 996.5
20240223195048 40 37 0.0 0.0 0.00 0.22 0.22 86 996.4
20240223194642 40 103 0.0 0.0 0.00 0.22 0.22 86 996.4
20240223194055 40 116 0.0 0.0 0.00 0.22 0.22 87 996.4
20240223193506 40 79 0.0 0.0 0.00 0.22 0.22 87 996.5
20240223193057 40 79 0.0 0.0 0.00 0.22 0.22 87 996.6
20240223192505 40 88 0.0 0.0 0.00 0.22 0.22 87 996.5
20240223192055 40 54 0.0 0.0 0.00 0.22 0.22 88 996.5
20240223191505 39 86 0.0 0.0 0.00 0.22 0.22 88 996.7
20240223191001 39 59 0.0 0.0 0.00 0.22 0.22 88 996.7
20240223190511 39 325 0.0 0.0 0.00 0.22 0.22 88 996.8
20240223190045 39 22 0.0 0.0 0.00 0.22 0.22 88 996.7
20240223185550 39 52 0.0 0.0 0.00 0.22 0.22 89 996.7
20240223185051 39 55 0.0 0.0 0.00 0.22 0.22 89 996.6
20240223184509 39 11 0.0 0.0 0.00 0.22 0.22 89 996.8
20240223184003 39 332 0.0 0.0 0.00 0.22 0.22 89 996.8
20240223183511 39 15 0.0 0.0 0.00 0.22 0.22 89 996.8
20240223183009 39 49 0.0 0.0 0.00 0.22 0.22 89 997.0
20240223182514 39 49 0.0 0.0 0.00 0.22 0.22 90 997.1
20240223182009 39 39 0.0 0.0 0.00 0.22 0.22 90 997.2
20240223181514 39 301 0.0 0.0 0.00 0.22 0.22 90 997.3
20240223181019 38 307 0.0 0.0 0.00 0.22 0.22 90 997.2
20240223180526 38 275 0.0 0.0 0.00 0.22 0.22 91 997.2
20240223180028 38 336 0.0 0.0 0.00 0.22 0.22 91 997.3
20240223175532 38 318 0.0 0.0 0.00 0.22 0.22 91 997.3
20240223175034 38 284 0.0 0.0 0.00 0.22 0.22 91 997.4
20240223174546 38 283 0.0 0.0 0.00 0.22 0.22 92 997.4
20240223174042 38 323 0.0 0.0 0.00 0.22 0.22 92 997.5
20240223173549 38 135 0.0 0.0 0.00 0.22 0.22 92 997.4
20240223173043 38 135 0.0 0.0 0.00 0.22 0.22 92 997.4
20240223172551 38 135 0.0 0.0 0.00 0.22 0.22 93 997.5
20240223172048 37 135 0.0 0.0 0.00 0.22 0.22 93 997.6
20240223171632 37 135 0.0 0.0 0.00 0.22 0.22 92 997.7
20240223171501 37 135 0.0 0.0 0.00 0.22 0.22 93 997.8
20240223171100 37 135 0.0 0.0 0.00 0.22 0.22 93 997.8
20240223171000 37 135 0.0 0.0 0.00 0.22 0.22 93 997.9
20240223170513 37 59 0.0 0.0 0.00 0.22 0.22 93 997.9
20240223170040 36 57 0.0 0.0 0.01 0.22 0.22 93 997.9
20240223165549 36 26 0.0 0.0 0.01 0.22 0.22 93 998.1
20240223165052 36 350 0.0 0.0 0.01 0.22 0.22 93 998.0
20240223164503 36 19 0.0 0.0 0.01 0.22 0.22 93 998.0
20240223164054 36 24 0.0 0.0 0.01 0.22 0.22 93 998.1
20240223163504 36 24 0.0 0.0 0.01 0.22 0.22 93 998.2
20240223163057 36 24 0.0 0.0 0.02 0.22 0.22 93 998.2
20240223163005 36 24 0.0 0.0 0.02 0.22 0.22 93 998.2
20240223162506 35 24 0.0 0.0 0.02 0.22 0.22 93 998.4
20240223162010 35 24 0.0 0.0 0.02 0.22 0.22 93 998.4
20240223161513 35 24 0.0 0.0 0.02 0.22 0.22 93 998.5
20240223161019 35 24 0.0 0.0 0.03 0.22 0.22 93 998.5
20240223160528 35 24 0.0 0.0 0.03 0.22 0.22 93 998.7
20240223160030 35 24 0.0 0.0 0.02 0.21 0.21 93 998.6
20240223155533 35 24 0.0 0.0 0.02 0.21 0.21 93 998.8
20240223155028 35 347 0.0 0.0 0.03 0.21 0.21 93 998.9
20240223154539 35 115 0.0 0.0 0.03 0.21 0.21 93 999.0
20240223154040 35 115 0.0 0.0 0.03 0.21 0.21 93 999.1
20240223153544 35 154 0.0 0.0 0.04 0.21 0.21 93 999.2
20240223153041 35 163 0.0 0.0 0.03 0.20 0.20 93 999.3
20240223152550 35 163 0.0 0.0 0.03 0.20 0.20 93 999.3
20240223152043 34 163 0.0 0.0 0.04 0.20 0.20 93 999.3
20240223151557 34 163 0.0 0.0 0.04 0.20 0.20 93 999.3
20240223151054 34 163 0.0 0.0 0.04 0.19 0.19 93 999.3
20240223150505 34 163 0.0 0.0 0.05 0.19 0.19 93 999.4
20240223150046 34 163 0.0 0.0 0.05 0.19 0.19 93 999.4
20240223145550 34 163 0.0 0.0 0.06 0.19 0.19 93 999.5
20240223145050 34 163 0.0 0.0 0.06 0.18 0.18 93 999.5
20240223144557 34 164 0.0 0.0 0.07 0.18 0.18 93 999.6
20240223144052 34 164 0.0 0.0 0.08 0.18 0.18 92 999.7
20240223143507 34 164 0.0 0.0 0.08 0.17 0.17 92 999.6
20240223143019 34 164 0.0 0.0 0.08 0.17 0.17 92 999.8
20240223142512 34 164 0.0 0.0 0.09 0.17 0.17 93 999.8
20240223142013 34 164 0.0 0.0 0.08 0.16 0.16 93 999.7
20240223141517 34 164 0.0 0.0 0.09 0.16 0.16 92 999.7
20240223141015 34 164 0.0 0.0 0.09 0.15 0.15 92 999.7
20240223140518 33 165 0.0 0.0 0.08 0.14 0.14 92 999.8
20240223140019 33 165 0.0 0.0 0.09 0.14 0.14 92 999.9
20240223135524 33 165 0.0 0.0 0.08 0.13 0.13 92 1000.0
20240223135026 33 165 0.0 0.0 0.08 0.12 0.12 92 1000.0
20240223134533 33 165 0.0 0.0 0.07 0.11 0.11 92 999.9
20240223134031 33 165 0.0 0.0 0.07 0.10 0.10 92 1000.0
20240223133544 33 165 0.0 0.0 0.07 0.10 0.10 92 1000.1
20240223133045 33 165 0.0 0.0 0.07 0.09 0.09 92 1000.1
20240223132548 33 165 0.0 0.0 0.06 0.08 0.08 92 1000.1
20240223132040 33 165 0.0 0.0 0.06 0.08 0.08 92 1000.0
20240223131610 33 165 0.0 0.0 0.06 0.07 0.07 92 1000.1
20240223131046 33 165 0.0 0.0 0.05 0.06 0.07 92 1000.2
20240223130552 33 165 0.0 0.0 0.05 0.06 0.06 92 1000.3
20240223130026 33 165 0.0 0.0 0.04 0.05 0.05 92 1000.4
20240223125538 33 165 0.0 0.0 0.04 0.05 0.05 92 1000.5
20240223125036 33 165 0.0 0.0 0.03 0.04 0.04 92 1000.6
20240223124542 32 165 0.0 0.0 0.03 0.04 0.04 91 1000.8
20240223124046 32 165 0.0 0.0 0.02 0.03 0.03 91 1000.9
20240223123556 32 165 0.0 0.0 0.02 0.03 0.03 91 1000.8
20240223123046 32 165 0.0 0.0 0.01 0.02 0.02 91 1000.7
20240223122554 32 165 0.0 0.0 0.01 0.02 0.02 91 1000.7
20240223122050 32 165 0.0 0.0 0.01 0.02 0.02 91 1000.7
20240223121504 32 165 0.0 0.0 0.00 0.01 0.01 91 1000.6
20240223121004 33 165 0.0 0.0 0.00 0.01 0.01 91 1000.5
20240223120512 33 165 0.0 0.0 0.00 0.01 0.01 91 1000.5
20240223120020 33 165 0.0 0.0 0.00 0.01 0.01 91 1000.5
20240223115518 32 165 0.0 0.0 0.00 0.01 0.01 91 1000.5
20240223115021 32 165 0.0 0.0 0.00 0.01 0.01 91 1000.5
20240223114529 32 165 0.0 0.0 0.00 0.01 0.01 91 1000.6
20240223114033 32 165 0.0 0.0 0.00 0.01 0.01 91 1000.6
20240223113532 32 165 0.0 0.0 0.00 0.01 0.01 91 1000.6
20240223113033 32 165 0.0 0.0 0.00 0.01 0.01 91 1000.7
20240223112536 32 165 0.0 0.0 0.00 0.01 0.01 91 1000.7
20240223112036 32 165 0.0 0.0 0.00 0.01 0.01 91 1000.7
20240223111550 32 165 0.0 0.0 0.00 0.01 0.01 90 1000.8
20240223111043 32 165 0.0 0.0 0.00 0.01 0.01 90 1000.8
20240223110543 32 165 0.0 0.0 0.00 0.01 0.01 90 1000.9
20240223110025 32 165 0.0 0.0 0.00 0.01 0.01 90 1000.9
20240223105526 32 165 0.0 0.0 0.00 0.01 0.01 90 1000.9
20240223105025 32 165 0.0 0.0 0.01 0.01 0.01 90 1001.1
20240223104530 32 165 0.0 0.0 0.01 0.01 0.01 90 1001.1
20240223104028 33 165 0.0 0.0 0.01 0.01 0.01 90 1001.2
20240223103538 33 165 0.0 0.0 0.01 0.01 0.01 90 1001.2
20240223103036 33 164 0.0 0.0 0.01 0.01 0.01 90 1001.2
20240223102544 33 164 0.0 0.0 0.01 0.01 0.01 90 1001.2
20240223102046 33 164 0.0 0.0 0.01 0.01 0.01 90 1001.2
20240223101557 33 164 0.0 0.0 0.01 0.01 0.01 90 1001.3
20240223101043 33 164 0.0 0.0 0.01 0.01 0.01 90 1001.3
20240223100557 33 164 0.0 0.0 0.01 0.01 0.01 90 1001.4
20240223100101 33 164 0.0 0.0 0.01 0.01 0.01 90 1001.4
20240223100010 33 165 0.0 0.0 0.01 0.01 0.01 90 1001.4
20240223095505 33 164 0.0 0.0 0.00 0.00 0.01 89 1001.5
20240223095100 33 164 0.0 0.0 0.00 0.00 0.00 89 1001.5
20240223094502 33 165 0.0 0.0 0.00 0.00 0.00 89 1001.6
20240223094001 33 165 0.0 0.0 0.00 0.00 0.00 89 1001.6
20240223093509 33 165 0.0 0.0 0.00 0.00 0.00 89 1001.6
20240223093014 33 164 0.0 0.0 0.00 0.00 0.00 89 1001.8
20240223092516 33 180 0.0 0.0 0.00 0.00 0.00 89 1001.8
20240223092014 33 138 0.0 0.0 0.00 0.00 0.00 89 1001.9
20240223091522 33 138 0.0 0.0 0.00 0.00 0.00 89 1001.9
20240223091023 33 198 0.0 0.0 0.00 0.00 0.00 88 1002.0
20240223090532 33 155 0.0 0.0 0.00 0.00 0.00 88 1002.0
20240223090056 33 151 0.0 0.0 0.00 0.00 0.00 88 1002.0
20240223085507 33 153 0.0 0.0 0.00 0.00 0.00 88 1002.2
20240223085100 33 153 0.0 0.0 0.00 0.00 0.00 88 1002.2
20240223085008 33 153 0.0 0.0 0.00 0.00 0.00 88 1002.2
20240223084507 33 193 0.0 0.0 0.00 0.00 0.00 88 1002.2
20240223084001 34 193 0.0 0.0 0.00 0.00 0.00 88 1002.3
20240223083510 34 188 0.0 0.0 0.00 0.00 0.00 87 1002.3
20240223083008 34 211 0.0 0.0 0.00 0.00 0.00 87 1002.3
20240223082511 34 187 0.0 0.0 0.00 0.00 0.00 87 1002.4
20240223082012 34 172 0.0 1.0 0.00 0.00 0.00 87 1002.5
20240223081516 34 185 0.0 1.0 0.00 0.00 0.00 87 1002.4
20240223081023 34 166 0.0 1.0 0.00 0.00 0.00 87 1002.5
20240223080529 34 219 0.0 1.0 0.00 0.00 0.00 87 1002.5
20240223080032 34 170 0.0 0.0 0.00 0.00 0.00 87 1002.5
20240223075539 34 201 0.0 0.0 0.00 0.00 0.00 87 1002.6
20240223075032 34 223 0.0 3.0 0.00 0.00 0.00 87 1002.6
20240223074542 34 187 0.0 6.0 0.00 0.00 0.00 87 1002.6
20240223074032 34 186 0.0 0.0 0.00 0.00 0.00 86 1002.7
20240223073543 34 156 0.0 0.0 0.00 0.00 0.00 86 1002.8
20240223073045 34 180 0.0 0.0 0.00 0.00 0.00 86 1002.8
20240223072558 34 213 0.0 0.0 0.00 0.00 0.00 86 1002.8
20240223072047 34 176 0.0 0.0 0.00 0.00 0.00 86 1002.9
20240223071557 34 188 0.0 0.0 0.00 0.00 0.00 86 1003.1
20240223071501 34 188 0.0 0.0 0.00 0.00 0.00 86 1003.2
20240223071049 34 182 0.0 0.0 0.00 0.00 0.00 86 1003.3
20240223070553 34 178 0.0 0.0 0.00 0.00 0.00 86 1003.2
20240223070029 34 205 0.0 0.0 0.00 0.00 0.00 86 1003.3
20240223065534 34 190 0.0 0.0 0.00 0.00 0.00 86 1003.4
20240223065031 34 170 0.0 0.0 0.00 0.00 0.00 86 1003.4
20240223064539 34 175 0.0 0.0 0.00 0.00 0.00 85 1003.6
20240223064035 34 218 0.0 0.0 0.00 0.00 0.00 85 1003.7
20240223063546 34 208 0.0 0.0 0.00 0.00 0.00 85 1003.7
20240223063051 34 186 0.0 0.0 0.00 0.00 0.00 85 1003.6
20240223062559 34 187 0.0 0.0 0.00 0.00 0.00 85 1003.6
20240223062057 34 198 0.0 0.0 0.00 0.00 0.00 85 1003.8
20240223061508 34 202 0.0 0.0 0.00 0.00 0.00 85 1003.8
20240223061059 34 174 0.0 0.0 0.00 0.00 0.00 85 1003.8
20240223061011 34 176 0.0 0.0 0.00 0.00 0.00 85 1003.8
20240223060514 34 174 0.0 0.0 0.00 0.00 0.00 85 1003.8
20240223060013 34 199 0.0 0.0 0.00 0.00 0.00 84 1003.9
20240223055518 34 167 0.0 0.0 0.00 0.00 0.00 84 1003.9
20240223055016 34 167 0.0 0.0 0.00 0.00 0.00 84 1004.0
20240223054523 34 171 0.0 0.0 0.00 0.00 0.00 84 1004.1
20240223054020 34 171 0.0 0.0 0.00 0.00 0.00 83 1004.2
20240223053524 34 171 0.0 0.0 0.00 0.00 0.00 83 1004.3
20240223053028 34 171 0.0 0.0 0.00 0.00 0.00 83 1004.4
20240223052536 34 170 0.0 0.0 0.00 0.00 0.00 82 1004.4
20240223052032 34 178 0.0 0.0 0.00 0.00 0.00 82 1004.4
20240223051638 34 182 0.0 0.0 0.00 0.00 0.00 82 1004.5
20240223051032 34 182 0.0 0.0 0.00 0.00 0.00 81 1004.5
20240223050541 34 171 0.0 0.0 0.00 0.00 0.00 81 1004.6
20240223050016 34 130 0.0 0.0 0.00 0.00 0.00 81 1004.7
20240223045522 34 207 0.0 0.0 0.00 0.00 0.00 80 1004.8
20240223045020 35 174 0.0 0.0 0.00 0.00 0.00 80 1004.8
20240223044524 35 176 0.0 0.0 0.00 0.00 0.00 80 1004.8
20240223044026 35 175 0.0 0.0 0.00 0.00 0.00 79 1004.9
20240223043541 35 173 0.0 0.0 0.00 0.00 0.00 79 1004.9
20240223043034 35 162 0.0 0.0 0.00 0.00 0.00 78 1005.0
20240223042548 35 165 0.0 0.0 0.00 0.00 0.00 78 1005.0
20240223042045 35 213 0.0 0.0 0.00 0.00 0.00 77 1005.2
20240223041625 35 230 0.0 0.0 0.00 0.00 0.00 77 1005.1
20240223041056 35 179 0.0 7.0 0.00 0.00 0.00 76 1005.3
20240223040508 35 198 0.0 7.0 0.00 0.00 0.00 76 1005.5
20240223040010 35 210 0.0 1.0 0.00 0.00 0.00 75 1005.6
20240223035516 35 196 0.0 1.0 0.00 0.00 0.00 75 1005.7
20240223035018 35 185 0.0 0.0 0.00 0.00 0.00 75 1005.7
20240223034528 36 192 0.0 4.0 0.00 0.00 0.00 75 1005.7
20240223034028 36 207 0.0 5.0 0.00 0.00 0.00 75 1005.7
20240223033536 36 225 0.0 5.0 0.00 0.00 0.00 74 1005.7
20240223033041 36 189 0.0 0.0 0.00 0.00 0.00 74 1005.7
20240223032548 36 283 0.0 0.0 0.00 0.00 0.00 74 1005.7
20240223032042 36 205 0.0 6.0 0.00 0.00 0.00 74 1005.6
20240223031607 36 218 1.0 6.0 0.00 0.00 0.00 74 1005.6
20240223031054 36 196 0.0 5.0 0.00 0.00 0.00 74 1005.5
20240223030506 36 198 0.0 5.0 0.00 0.00 0.00 74 1005.5
20240223030034 35 178 0.0 0.0 0.00 0.00 0.00 73 1005.5
20240223025546 35 236 0.0 0.0 0.00 0.00 0.00 74 1005.8
20240223025040 35 162 0.0 0.0 0.00 0.00 0.00 74 1005.8
20240223024552 35 213 0.0 0.0 0.00 0.00 0.00 73 1005.8
20240223024050 35 166 0.0 0.0 0.00 0.00 0.00 73 1005.8
20240223023559 35 179 0.0 0.0 0.00 0.00 0.00 73 1006.0
20240223023052 35 171 0.0 2.0 0.00 0.00 0.00 73 1006.0
20240223022506 35 212 0.0 0.0 0.00 0.00 0.00 73 1006.1
20240223022054 35 212 0.0 0.0 0.00 0.00 0.00 73 1006.3